Total_Precipitation_Accumulation
2.24 2.32 2.26 2.20 2.17 2.09 2.10 2.29 2.40 2.24 2.05 1.82 1.65 1.59 1.60 1.51 1.61 1.43 1.39 1.33 1.16 1.12 1.13 1.11 1.29 1.65 1.93 2.17 2.40 2.38 2.52 2.67 2.72 2.83 2.80 2.65 2.62 2.44
2.23 2.33 2.36 2.33 2.34 2.29 2.18 2.15 2.10 2.17 2.08 1.82 1.63 1.55 1.69 1.56 1.69 1.44 1.41 1.60 1.37 1.27 1.18 1.06 1.06 1.15 1.30 1.52 1.81 1.96 2.00 2.06 2.11 2.32 2.51 2.52 2.43 2.25
2.04 2.14 2.26 2.30 2.41 2.44 2.46 2.35 2.21 2.15 2.09 1.90 1.70 1.60 1.78 1.80 1.70 1.60 1.47 1.41 1.41 1.40 1.26 1.20 1.13 1.05 1.09 1.18 1.42 1.62 1.80 1.68 1.52 1.62 1.84 1.94 2.14 2.17
1.93 1.90 1.95 2.00 2.15 2.30 2.40 2.37 2.37 2.25 2.18 2.17 1.98 1.75 1.68 1.74 1.78 1.83 1.72 1.49 1.44 1.54 1.46 1.36 1.29 1.17 1.06 1.04 1.14 1.21 1.35 1.44 1.28 1.16 1.24 1.34 1.45 1.64
1.73 1.66 1.63 1.71 1.84 1.98 2.07 2.17 2.30 2.33 2.36 2.33 2.25 2.05 1.81 1.80 1.86 1.87 1.88 1.93 1.67 1.58 1.58 1.53 1.47 1.43 1.30 1.12 1.04 1.05 1.06 1.14 1.16 1.02 0.94 1.04 1.10 1.25
1.39 1.36 1.37 1.40 1.50 1.66 1.80 2.01 2.20 2.32 2.39 2.41 2.36 2.14 1.95 1.89 1.86 1.89 1.99 2.04 2.00 1.76 1.65 1.57 1.64 1.59 1.44 1.30 1.16 1.10 1.11 1.10 1.15 1.16 0.98 0.89 0.90 0.94
1.14 1.03 1.04 1.12 1.16 1.26 1.28 1.55 1.82 2.05 2.18 2.25 2.24 2.10 1.90 1.79 1.66 1.70 1.84 2.02 2.08 2.02 1.91 1.65 1.58 1.52 1.47 1.44 1.32 1.22 1.15 1.20 1.19 1.21 1.21 1.07 1.02 0.98
1.00 0.91 0.90 0.95 0.89 0.87 0.90 1.13 1.43 1.60 1.77 1.96 2.03 1.92 1.76 1.69 1.75 1.73 1.73 1.79 1.82 1.74 1.72 1.72 1.63 1.55 1.48 1.44 1.46 1.41 1.30 1.25 1.31 1.29 1.30 1.27 1.19 1.19
1.01 1.02 0.93 0.88 0.97 0.86 0.81 0.91 1.00 1.12 1.28 1.55 1.76 1.74 1.84 1.77 1.68 1.61 1.62 1.66 1.65 1.70 1.71 1.70 1.60 1.50 1.40 1.37 1.51 1.42 1.40 1.36 1.38 1.43 1.36 1.39 1.36 1.30
1.07 1.15 1.14 1.06 1.04 1.11 1.04 1.04 1.00 0.94 1.05 0.98 1.17 1.55 1.70 1.77 1.75 1.78 1.87 1.79 1.64 1.64 1.66 1.67 1.58 1.46 1.32 1.24 1.35 1.27 1.19 1.19 1.28 1.46 1.55 1.54 1.58 1.52
0.98 1.08 1.12 1.07 1.15 1.23 1.31 1.35 1.26 1.10 1.23 1.24 1.14 1.26 1.43 1.50 1.62 1.72 1.77 1.70 1.63 1.52 1.39 1.36 1.31 1.34 1.39 1.30 1.25 1.30 1.21 1.16 1.13 1.16 1.27 1.35 1.49 1.65
1.00 1.06 1.22 1.14 1.13 1.10 1.15 1.27 1.24 1.10 0.99 1.03 1.00 0.90 0.84 0.97 1.20 1.34 1.62 1.75 1.69 1.57 1.37 1.30 1.32 1.31 1.33 1.24 1.14 1.17 1.17 1.24 1.23 1.16 1.18 1.26 1.36 1.43
1.12 1.15 1.13 1.24 1.08 1.03 1.03 1.02 1.10 1.11 1.08 1.12 1.19 1.07 0.95 0.90 0.95 1.03 1.26 1.51 1.65 1.55 1.39 1.28 1.31 1.33 1.24 1.10 1.04 1.05 1.05 1.05 1.09 1.17 1.21 1.31 1.38 1.33
1.00 1.00 0.97 1.08 0.94 0.85 0.80 0.85 0.94 1.01 1.08 1.20 1.18 1.11 1.08 1.02 1.00 1.04 1.11 1.24 1.34 1.41 1.42 1.38 1.35 1.31 1.26 1.11 1.03 1.02 1.02 0.99 0.96 1.01 1.06 1.30 1.45 1.50
0.70 0.82 0.87 0.86 0.82 0.74 0.78 0.82 0.84 0.86 0.96 1.04 1.04 0.99 0.99 1.05 1.07 1.07 1.11 1.15 1.14 1.07 1.08 1.16 1.28 1.33 1.33 1.22 1.06 1.03 1.04 0.99 0.91 0.92 0.99 1.07 1.14 1.30
0.63 0.69 0.73 0.72 0.71 0.72 0.76 0.80 0.84 0.86 0.91 0.93 0.92 0.95 0.97 1.04 1.11 1.09 1.10 1.17 1.23 1.16 1.08 1.11 1.22 1.36 1.37 1.26 1.19 1.11 1.07 1.04 0.95 0.92 0.93 1.00 1.09 1.19
0.74 0.68 0.66 0.66 0.67 0.74 0.77 0.76 0.80 0.85 0.86 0.84 0.87 0.90 0.90 0.96 1.00 1.00 1.04 1.09 1.13 1.06 1.04 1.11 1.19 1.28 1.32 1.31 1.33 1.22 1.18 1.18 1.15 1.12 1.08 1.05 1.05 1.11
0.75 0.80 0.82 0.87 0.89 0.87 0.84 0.76 0.72 0.74 0.81 0.87 0.89 0.90 0.90 0.88 0.92 0.96 1.00 1.08 1.11 1.01 0.93 0.97 1.10 1.24 1.25 1.15 1.07 1.05 1.08 1.11 1.17 1.24 1.20 1.14 1.07 1.08
0.71 0.86 0.90 0.88 0.84 0.81 0.77 0.70 0.64 0.62 0.66 0.76 0.87 0.96 0.97 0.96 0.98 1.02 1.03 1.00 1.00 0.99 0.92 0.88 0.95 1.11 1.18 1.01 0.87 0.85 0.90 0.95 1.04 1.11 1.13 1.07 1.01 1.05
0.67 0.77 0.79 0.78 0.72 0.66 0.60 0.55 0.55 0.55 0.55 0.61 0.65 0.74 0.90 1.01 1.09 1.11 1.14 1.16 1.15 1.11 1.05 0.94 0.87 0.90 1.02 1.01 0.89 0.75 0.77 0.84 0.94 1.00 1.02 1.03 1.03 1.08
0.49 0.51 0.52 0.54 0.54 0.51 0.49 0.51 0.55 0.55 0.56 0.56 0.57 0.61 0.72 0.87 1.04 1.14 1.18 1.26 1.24 1.22 1.20 1.10 1.05 1.14 1.08 1.12 1.07 0.84 0.72 0.77 0.87 0.91 0.95 1.04 1.05 1.01
0.43 0.42 0.44 0.45 0.45 0.45 0.47 0.51 0.57 0.60 0.58 0.58 0.62 0.67 0.76 0.82 0.87 0.98 1.14 1.19 1.13 1.10 1.11 1.12 1.16 1.19 1.18 1.24 1.17 0.99 0.87 0.81 0.86 0.94 0.98 1.02 1.03 1.01
0.42 0.44 0.46 0.45 0.45 0.50 0.51 0.52 0.55 0.59 0.60 0.61 0.63 0.68 0.77 0.86 0.92 0.95 0.97 1.02 1.07 1.12 1.12 1.12 1.12 1.14 1.17 1.22 1.29 1.24 1.10 0.98 0.94 0.96 0.97 1.06 1.02 0.90